Location: Écuvilly
(49.6505°N, 2.9206°E)
Time: 17:33:28
(UTC+00:00)

Cosmos 2278 Rocket - Pass Details

Date: 17 November 2025
Orbit: 841 x 843 km, 71.0° (Epoch: 09 December)

Event Time Altitude Azimuth Distance (km) Brightness Sun altitude
Rises 19:35:46 0° 254° (WSW) 3,394 6.2 -34.2°
Reaches altitude 10° 19:38:45 10° 269° (W) 2,462 5.4 -34.6°
Maximum altitude 19:43:08 23° 320° (NW) 1,744 4.2 -35.3°
Enters shadow 19:44:39 20° 342° (NNW) 1,847 4.2 -35.6°
